Showing default

HULIANWANG DIGUI-132, 67240

Orbit data source: Space-Track

HULIANWANG DIGUI-132, 67240 is a payload satellite owned by Zhongguo Xingwang (CN) in LEO that was launched on Thu, 25 Dec 2025 UTC via a CHANG ZHENG 8A launch vehicle from the Wenchang Satellite Launch Center (WSC). Payload-class satellites include a variety of spacecraft equipped with specific instruments for various scientific and technological missions. These include communications satellites like Starlink; space stations such as the ISS; scientific satellites like the Hubble; Earth observation satellites from companies like Planet Labs, Umbra, and HawkEye 360; GPS; miniature CubeSats for education and research; and military/defense satellites.

Loading next visibility...
Identifier
67240, 2025-311E
Orbit
LEO
Country
Flag of CNCN / PRC
Related business
Manufacturer
CAST
Mission
Operational Civil Communications
Bus & Motor
XINGWANG C, Unknown motor
Mass
~700 kg wet, ~700 kg dry
Launch date (UTC)
2025-12-25 (6 months ago)
Launch vehicle
CHANG ZHENG 8A
Launch site
Wenchang Satellite Launch Center (WSC)
Object type
Payload
Rocket body
Debris
Shape & HBR
Box + 2 Pan, 14.5 m
Radar Cross Section
5.935 m², Large (>1 m²)

Expand to show TLE details & history
Last TLE update: 5 hours ago

TLE from 5 hours ago
0 HULIANWANG DIGUI-132
1 67240U 25311E   26168.15339959 -.00000105  00000-0  41720-4 0  9993
2 67240  50.0054 115.9968 0001039 326.6698  33.4109 13.29322735 23335
Epoch: 2026-06-17T03:40Z
TLE epoch observation values (Epoch: 2026-06-17T03:40:53.724Z)
Latitude
0.00001°
Longitude
155.35779°
Altitude
1,149.173 km
Speed
7.28 km/s
True Right ascension
07h 43m 59s
True Declination
0° 00' 00"
Sunlit
Object was in daylight at epoch
Visualization orbit readout
Latitude
Unknown
Longitude
Unknown
Altitude
Unknown
Speed
Unknown
Apparent Right ascension
Unknown
Apparent Declination
Unknown
Sunlit
N/A
Visualization observer readout
Local Sidereal Time
19:32:14
Azimuth
Unknown
Elevation
Unknown
Doppler factor
Unknown
Orbital elements
Apogee altitude
1,150.806 km
Perigee altitude
1,149.241 km
Semi-major axis
7,528.16 km
Eccentricity
0.0001
Inclination
50.0054°
RAAN
115.9968°
Arg. of periapsis
326.6698°
True anomaly
33.41746°
Mean anomaly
33.4109°
Eccentric anomaly
33.41418°
Mean motion
3.32284 °/min
Orbital period
108.34 mins
BSTAR
0.00004172
Loading maneuver chart data...
Computing Atmospheric mass density...
Loading historical data...
Loading historical data...
Loading historical data...
Loading historical data...
Loading historical data...
Loading historical data...
Loading historical data...

Documentation

Showing up to 5 results
|